When you browse on this site, cookies collect data to enhance your experience and personalize the content and advertising you see.
Visit our Privacy Policy to learn more. By continuing to use the site, you agree to this use of cookies and data.
  • In France
  • List of Countries
  • For 7 days
  • Water Temperature
  • Satellite Maps
  • Weather Map
  • Weather Widgets
  • user-avatar
    Login

    Hourly Weather Leighton Buzzard

    Today, 19 June, Wednesday

    Time Temperature Precipitation Wind Pressure Humidity
    00:00 +14°C° 0.1 mm 1 mps 748 mmHg 97%
    01:00 +13°C° 0 mm 2 mps 748 mmHg 98%
    02:00 +13°C° 0 mm 2 mps 747 mmHg 98%
    03:00 +13°C° 0 mm 2 mps 747 mmHg 98%
    04:00 +14°C° 0 mm 2 mps 747 mmHg 98%
    05:00 +14°C° 0 mm 2 mps 746 mmHg 97%
    06:00 +14°C° 0 mm 3 mps 746 mmHg 97%
    07:00 +14°C° 0 mm 3 mps 746 mmHg 95%
    08:00 +16°C° 0 mm 3 mps 746 mmHg 94%
    09:00 +16°C° 0 mm 3 mps 746 mmHg 92%
    10:00 +17°C° 0 mm 3 mps 747 mmHg 89%
    11:00 +17°C° 0 mm 3 mps 747 mmHg 85%
    12:00 +18°C° 0 mm 3 mps 747 mmHg 82%
    13:00 +18°C° 0.3 mm 3 mps 747 mmHg 83%
    14:00 +18°C° 0.3 mm 3 mps 747 mmHg 83%
    15:00 +18°C° 0.3 mm 3 mps 747 mmHg 83%
    16:00 +18°C° 0.3 mm 3 mps 747 mmHg 85%
    17:00 +18°C° 0.3 mm 3 mps 747 mmHg 86%
    18:00 +17°C° 0.3 mm 3 mps 747 mmHg 87%
    19:00 +16°C° 0 mm 3 mps 748 mmHg 89%
    20:00 +14°C° 0 mm 3 mps 748 mmHg 92%
    21:00 +12°C° 0 mm 3 mps 748 mmHg 94%
    22:00 +11°C° 0 mm 3 mps 748 mmHg 93%
    23:00 +10°C° 0 mm 3 mps 749 mmHg 92%

    Tomorrow, 20 June, Thursday

    Time Temperature Precipitation Wind Pressure Humidity
    00:00 +9°C° 0 mm 3 mps 749 mmHg 92%
    01:00 +8°C° 0 mm 3 mps 749 mmHg 93%
    02:00 +8°C° 0 mm 3 mps 749 mmHg 93%
    03:00 +7°C° 0 mm 3 mps 749 mmHg 94%
    04:00 +8°C° 0 mm 3 mps 749 mmHg 94%
    05:00 +8°C° 0 mm 4 mps 749 mmHg 94%
    06:00 +10°C° 0 mm 4 mps 749 mmHg 94%
    07:00 +12°C° 0 mm 4 mps 750 mmHg 89%
    08:00 +13°C° 0 mm 4 mps 750 mmHg 85%
    09:00 +15°C° 0 mm 4 mps 750 mmHg 80%
    10:00 +15°C° 0.2 mm 4 mps 750 mmHg 78%
    11:00 +15°C° 0.2 mm 4 mps 750 mmHg 77%
    12:00 +17°C° 0.2 mm 4 mps 751 mmHg 75%
    13:00 +15°C° 0.4 mm 4 mps 751 mmHg 77%
    14:00 +15°C° 0.4 mm 4 mps 751 mmHg 79%
    15:00 +15°C° 0.4 mm 4 mps 751 mmHg 81%
    16:00 +15°C° 0.2 mm 4 mps 751 mmHg 82%
    17:00 +15°C° 0.2 mm 4 mps 751 mmHg 83%
    18:00 +14°C° 0.2 mm 4 mps 751 mmHg 84%
    19:00 +13°C° 0.1 mm 4 mps 752 mmHg 87%
    20:00 +12°C° 0.1 mm 3 mps 752 mmHg 90%
    21:00 +10°C° 0.1 mm 3 mps 752 mmHg 93%
    22:00 +9°C° 0 mm 3 mps 752 mmHg 94%
    23:00 +9°C° 0 mm 3 mps 753 mmHg 94%

    Day after tomorrow, 21 June, Friday

    Time Temperature Precipitation Wind Pressure Humidity
    00:00 +8°C° 0 mm 3 mps 753 mmHg 94%
    01:00 +7°C° 0 mm 3 mps 753 mmHg 95%
    02:00 +7°C° 0 mm 3 mps 753 mmHg 95%
    03:00 +5°C° 0 mm 3 mps 753 mmHg 95%
    04:00 +7°C° 0 mm 3 mps 753 mmHg 94%
    05:00 +7°C° 0 mm 4 mps 754 mmHg 93%
    06:00 +8°C° 0 mm 4 mps 754 mmHg 92%
    07:00 +11°C° 0 mm 4 mps 754 mmHg 87%
    08:00 +12°C° 0 mm 4 mps 754 mmHg 82%
    09:00 +14°C° 0 mm 4 mps 755 mmHg 77%
    10:00 +14°C° 0 mm 4 mps 755 mmHg 73%
    11:00 +15°C° 0 mm 4 mps 755 mmHg 70%
    12:00 +17°C° 0 mm 4 mps 755 mmHg 67%
    13:00 +17°C° 0.1 mm 4 mps 755 mmHg 68%
    14:00 +17°C° 0.1 mm 3 mps 755 mmHg 69%
    15:00 +17°C° 0.1 mm 3 mps 755 mmHg 69%
    16:00 +17°C° 0.1 mm 3 mps 756 mmHg 72%
    17:00 +16°C° 0.1 mm 2 mps 756 mmHg 74%
    18:00 +16°C° 0.1 mm 2 mps 756 mmHg 76%
    19:00 +15°C° 0 mm 2 mps 756 mmHg 80%
    20:00 +13°C° 0 mm 1 mps 757 mmHg 84%
    21:00 +12°C° 0 mm 1 mps 757 mmHg 88%
    22:00 +11°C° 0 mm 1 mps 757 mmHg 89%
    23:00 +10°C° 0 mm 1 mps 757 mmHg 90%

    22 June, Saturday

    Time Temperature Precipitation Wind Pressure Humidity
    00:00 +9°C° 0 mm 1 mps 757 mmHg 91%
    01:00 +9°C° 0 mm 1 mps 757 mmHg 90%
    02:00 +9°C° 0 mm 1 mps 757 mmHg 90%
    03:00 +7°C° 0 mm 0 mps 757 mmHg 90%
    04:00 +8°C° 0 mm 0 mps 757 mmHg 88%
    05:00 +9°C° 0 mm 0 mps 757 mmHg 87%
    06:00 +11°C° 0 mm 1 mps 757 mmHg 86%
    07:00 +13°C° 0 mm 1 mps 757 mmHg 81%
    08:00 +14°C° 0 mm 1 mps 757 mmHg 77%
    09:00 +16°C° 0 mm 1 mps 757 mmHg 72%
    10:00 +18°C° 0 mm 1 mps 757 mmHg 70%
    11:00 +18°C° 0 mm 1 mps 757 mmHg 67%
    12:00 +19°C° 0 mm 1 mps 757 mmHg 65%
    13:00 +19°C° 0 mm 1 mps 757 mmHg 65%
    14:00 +19°C° 0 mm 1 mps 757 mmHg 64%
    15:00 +19°C° 0 mm 1 mps 757 mmHg 64%
    16:00 +17°C° 0 mm 0 mps 757 mmHg 65%
    17:00 +17°C° 0 mm 0 mps 757 mmHg 67%
    18:00 +17°C° 0 mm 0 mps 757 mmHg 68%
    19:00 +16°C° 0 mm 0 mps 757 mmHg 75%
    20:00 +15°C° 0 mm 1 mps 757 mmHg 81%
    21:00 +13°C° 0 mm 1 mps 757 mmHg 88%
    22:00 +12°C° 0 mm 1 mps 757 mmHg 89%
    23:00 +12°C° 0 mm 1 mps 757 mmHg 90%

    23 June, Sunday

    Time Temperature Precipitation Wind Pressure Humidity
    00:00 +11°C° 0 mm 1 mps 757 mmHg 92%
    01:00 +10°C° 0 mm 2 mps 757 mmHg 92%
    02:00 +10°C° 0 mm 2 mps 757 mmHg 92%
    03:00 +10°C° 0 mm 2 mps 757 mmHg 93%
    04:00 +10°C° 0 mm 2 mps 757 mmHg 91%
    05:00 +12°C° 0 mm 2 mps 757 mmHg 89%
    06:00 +12°C° 0 mm 3 mps 757 mmHg 86%
    07:00 +13°C° 0 mm 3 mps 757 mmHg 84%
    08:00 +14°C° 0 mm 4 mps 757 mmHg 81%
    09:00 +15°C° 0 mm 4 mps 757 mmHg 78%
    10:00 +16°C° 0 mm 5 mps 757 mmHg 76%
    11:00 +17°C° 0 mm 5 mps 757 mmHg 73%
    12:00 +19°C° 0 mm 5 mps 757 mmHg 71%
    13:00 +19°C° 0 mm 6 mps 757 mmHg 72%
    14:00 +19°C° 0 mm 6 mps 756 mmHg 72%
    15:00 +19°C° 0 mm 6 mps 756 mmHg 73%
    16:00 +19°C° 0 mm 6 mps 756 mmHg 76%
    17:00 +17°C° 0 mm 5 mps 756 mmHg 80%
    18:00 +16°C° 0 mm 5 mps 756 mmHg 83%
    19:00 +15°C° 0 mm 5 mps 756 mmHg 81%
    20:00 +15°C° 0 mm 5 mps 756 mmHg 79%
    21:00 +14°C° 0 mm 5 mps 756 mmHg 77%
    22:00 +14°C° 0 mm 5 mps 756 mmHg 81%
    23:00 +14°C° 0 mm 5 mps 755 mmHg 85%

    24 June, Monday

    Time Temperature Precipitation Wind Pressure Humidity
    00:00 +14°C° 0 mm 6 mps 755 mmHg 88%
    01:00 +14°C° 0.1 mm 6 mps 755 mmHg 88%
    02:00 +14°C° 0.1 mm 7 mps 755 mmHg 88%
    03:00 +14°C° 0.1 mm 7 mps 754 mmHg 88%
    04:00 +14°C° 0.1 mm 7 mps 754 mmHg 88%
    05:00 +14°C° 0.1 mm 7 mps 754 mmHg 89%
    06:00 +15°C° 0.1 mm 7 mps 754 mmHg 89%
    07:00 +15°C° 0.1 mm 7 mps 754 mmHg 91%
    08:00 +15°C° 0.1 mm 6 mps 754 mmHg 92%
    09:00 +15°C° 0.1 mm 6 mps 754 mmHg 93%
    10:00 +16°C° 0.1 mm 6 mps 754 mmHg 91%
    11:00 +17°C° 0.1 mm 7 mps 754 mmHg 89%
    12:00 +17°C° 0.1 mm 7 mps 753 mmHg 87%
    13:00 +18°C° 0 mm 7 mps 753 mmHg 86%
    14:00 +19°C° 0 mm 6 mps 753 mmHg 84%
    15:00 +19°C° 0 mm 6 mps 753 mmHg 83%
    16:00 +19°C° 0.1 mm 5 mps 753 mmHg 85%
    17:00 +20°C° 0.1 mm 5 mps 753 mmHg 87%
    18:00 +20°C° 0.1 mm 4 mps 753 mmHg 89%
    19:00 +19°C° 0.2 mm 4 mps 753 mmHg 90%
    20:00 +19°C° 0.2 mm 4 mps 754 mmHg 91%
    21:00 +18°C° 0.2 mm 3 mps 754 mmHg 91%
    22:00 +18°C° 0.1 mm 3 mps 754 mmHg 92%
    23:00 +18°C° 0.1 mm 2 mps 754 mmHg 93%
    Show more